McAlester, OK

9:57 AM CST on December 14, 2019 (GMT -0600)
McAlester Regional

Weather History for KMLC - September, 2019

Change the Weather History Date:

Wednesday, September 25, 2019

  Actual Average Record
Temperature  
Mean Temperature 82 °F -  
Max Temperature 91 °F 80 °F 99 °F (2012)
Min Temperature 73 °F 58 °F 38 °F (1989)
Cooling Degree Days 17    
Growing Degree Days 32 (Base 50)    
Moisture  
Dew Point 71 °F    
Average Humidity 73    
Maximum Humidity 91    
Minimum Humidity 57    
Precipitation  
Precipitation 0.00 in - - ()
Sea Level Pressure  
Sea Level Pressure 29.82 in    
Wind  
Wind Speed 7 mph (South)    
Max Wind Speed 13 mph    
Max Gust Speed 24 mph    
Visibility 10 miles    
Events      
Averages and records for this station are not official NWS values.
T = Trace of Precipitation, MM = Missing Value Source: NWS Daily Summary

Daily Weather History Graph

Daily Weather History Graph

Search for Another Location

Airport or City:

Astronomy

Sep. 25, 2019 Rise Set
Actual Time 7:13 AM CDT 7:15 PM CDT
Civil Twilight 6:48 AM CDT 7:41 PM CDT
Nautical Twilight 6:18 AM CDT 8:10 PM CDT
Astronomical Twilight 5:48 AM CDT 8:40 PM CDT
Moon 3:20 AM CDT (9/25) 5:37 PM CDT (9/25)
Length of Visible Light 12h 53m
Length of Day
12h 02m
Waning Crescent, 14% of the Moon is Illuminated
Sep 25
Waning Crescent
Sep 28
New
Oct 5
First Quarter
Oct 13
Full
Oct 21
Last Quarter

Hourly Weather History & Observations

Time (CDT) Temp. Heat Index Dew Point Humidity Pressure Visibility Wind Dir Wind Speed Gust Speed Precip Events Conditions
12:53 AM 73.9 °F - 71.1 °F 91% 29.84 in 10.0 mi Variable 4.6 mph - N/A   Overcast
1:53 AM 75.9 °F - 70.0 °F 82% 29.83 in 10.0 mi South 5.8 mph - N/A   Clear
2:53 AM 75.9 °F - 70.0 °F 82% 29.80 in 10.0 mi South 8.1 mph - N/A   Partly Cloudy
3:53 AM 75.9 °F - 69.1 °F 79% 29.80 in 10.0 mi Variable 6.9 mph - N/A   Partly Cloudy
4:53 AM 75.9 °F - 69.1 °F 79% 29.82 in 10.0 mi Variable 5.8 mph - N/A   Partly Cloudy
5:53 AM 75.0 °F - 69.1 °F 82% 29.83 in 10.0 mi Variable 5.8 mph - N/A   Clear
6:53 AM 73.9 °F - 69.1 °F 85% 29.84 in 10.0 mi Variable 6.9 mph - N/A   Overcast
7:53 AM 73.0 °F - 69.1 °F 87% 29.85 in 10.0 mi Calm Calm - N/A   Clear
8:53 AM 77.0 °F - 70.0 °F 79% 29.86 in 10.0 mi South 6.9 mph - N/A   Clear
9:53 AM 79.0 °F - 71.1 °F 77% 29.87 in 10.0 mi South 10.4 mph - N/A   Partly Cloudy
10:53 AM 82.0 °F 86.7 °F 72.0 °F 71% 29.87 in 10.0 mi South 10.4 mph 18.4 mph N/A   Partly Cloudy
11:53 AM 82.9 °F 88.0 °F 72.0 °F 69% 29.85 in 10.0 mi SSW 11.5 mph 24.2 mph N/A   Clear
12:53 PM 86.0 °F 92.2 °F 72.0 °F 63% 29.83 in 10.0 mi South 11.5 mph 21.9 mph N/A   Clear
1:53 PM 88.0 °F 95.6 °F 73.0 °F 61% 29.81 in 10.0 mi SW 12.7 mph - N/A   Clear
2:53 PM 90.0 °F 99.0 °F 73.9 °F 59% 29.79 in 10.0 mi SSW 11.5 mph - N/A   Clear
3:53 PM 91.0 °F 100.4 °F 73.9 °F 57% 29.78 in 10.0 mi SSW 9.2 mph - N/A   Clear
4:53 PM 91.0 °F 100.4 °F 73.9 °F 57% 29.77 in 10.0 mi South 8.1 mph - N/A   Clear
5:53 PM 89.1 °F 98.0 °F 73.9 °F 61% 29.77 in 10.0 mi South 6.9 mph - N/A   Clear
6:53 PM 87.1 °F 94.5 °F 73.0 °F 63% 29.77 in 10.0 mi South 4.6 mph - N/A   Clear
7:53 PM 82.0 °F 87.9 °F 73.9 °F 76% 29.79 in 10.0 mi SSE 3.5 mph - N/A   Clear
8:53 PM 81.0 °F 85.8 °F 73.0 °F 77% 29.81 in 10.0 mi Variable 3.5 mph - N/A   Clear
9:53 PM 81.0 °F 85.2 °F 72.0 °F 74% 29.82 in 10.0 mi South 4.6 mph - N/A   Clear
10:53 PM 81.0 °F 84.9 °F 71.1 °F 72% 29.81 in 10.0 mi Variable 6.9 mph - N/A   Clear
11:53 PM 81.0 °F 84.4 °F 70.0 °F 69% 29.78 in 10.0 mi South 9.2 mph - N/A   Clear